Regional Weather Roundup
Issued by NWS Newport/Morehead, NC

Current Version | Previous Version | Text Only | Print | Product List | Glossary Off
Versions: 1 2 3 4 5 6 7 8 9 10 11 12 13 14 15 16 17 18 19 20 21 22 23 24 25 26 27 28 29 30 31 32 33 34 35 36 37 38 39 40 41 42 43 44 45 46 47 48 49 50
502 ASUS42 KMHX 031613 RWRMHX WEATHER ROUNDUP FOR EASTERN NORTH CAROLINA NATIONAL WEATHER SERVICE NEWPORT/MOREHEAD CITY NC 1200 PM EDT TUE MAY 03 2016 NOTE: "FAIR" INDICATES FEW OR NO CLOUDS BELOW 12,000 FEET WITH NO SIGNIFICANT WEATHER AND/OR OBSTRUCTIONS TO VISIBILITY NCZ015>017-031-032-045>047-102-103-031700- NORTH COAST CITY SKY/WX TMP DP RH WIND PRES REMARKS EDENTON CLOUDY 70 70 100 S8 29.85F ELIZABETH CITY CLOUDY 68 65 90 S9 29.83F KITTY HAWK DRIZZLE 68 67 98 CALM 29.85R MANTEO NOT AVBL $$ NCZ045>047-081-094-103-104-031700- CENTRAL COAST CITY SKY/WX TMP DP RH WIND PRES REMARKS FRISCO LGT RAIN 67 65 93 W14G23 29.88F SWANQUARTER NOT AVBL $$ NCZ095-097-098-100-101-031700- SOUTHERN COAST CITY SKY/WX TMP DP RH WIND PRES REMARKS BEAUFORT LGT RAIN 67 64 90 SW10 29.87F CEDAR ISLAND NOT AVBL JACKSONVILLE LGT RAIN 66 64 93 S6 29.87S PINEY ISLAND NOT AVBL WILMINGTON LGT RAIN 66 65 96 CALM 29.86F $$ NCZ011>013-027>030-043-044-078>080-089-090>093-098-031700- COASTAL PLAIN CITY SKY/WX TMP DP RH WIND PRES REMARKS AHOSKIE CLOUDY 66 64 94 S3 29.83F CLINTON RAIN 67 67 100 CALM 29.86F ELIZABETHTOWN CLOUDY 68 67 97 CALM 29.86F GOLDSBORO LGT RAIN 68 68 100 S8 29.85S GREENVILLE CLOUDY 68 66 94 S10 29.87F HAVELOCK LGT RAIN 67 65 93 SW8 29.89F KENANSVILLE LGT RAIN 65 64 97 CALM 29.90R KINSTON LGT RAIN 66 64 94 S10 29.87F NEW BERN LGT RAIN 67 64 90 S8 29.88F RICHLANDS CLOUDY 66 65 96 S8 29.88F ROCKY MOUNT CLOUDY 70 66 87 S6 29.83F WASHINGTON LGT RAIN 66 65 94 S6 29.86S WHITEVILLE CLOUDY 69 66 90 CALM 29.86F $$ AMZ130-135-150-152-154-156-158-170-250-252-270-ANZ085-086-088-633-658-670-031700- MARINE OBSERVATIONS STATION/POSITION TIME TEMP WIND PRES WAVE SWELL AIR SEA DIR/SP/G HT/PER HT/PER (UTC) (F) (DEG/KT/KT) (MB) (FT/S) (FT/S) CHESAPEAKE LIGHT 1600 64 220/ 13/ 14 1009.9 64 E VA BEACH 1550 58 54 240/ 10/ 10 1010.2 3/ 6 3/ 6 DUCK 1500 66 65 270/ 6/ 9 1009.9 2 E DUCK 1511 58 N/A 2/10 OREGON INLET 1500 66 72 250/ 5/ 7 1010.8 13E OREGON INLT 1600 61 N/A 5/ 6 5/ 6 HATTERAS CG 1500 67 69 230/ 9/ 16 1011.9 DIAMOND BUOY 1550 68 72 270/ 17/ 19 1012.2 5/ 7 2/17 CAPE LOOKOUT 1600 67 270/ 10/ 12 1011.3 BEAUFORT LAB 1500 66 67 290/ 6/ 10 1012.1 30 SE NEW RVR IN 1525 70 N/A 6/ 7 27 SE WRIGHTSVLE 1508 70 72 310/ 14/ 21 1012.1 5 SE WRIGHTSVLE 1508 67 69 210/ 8/ 12 1014.1 225 S CAPE HAT 1550 74 74 180/ 16/ 17 1015.2 4/ 6 2/10 41 SE CHARLESTON 1550 75 74 230/ 12/ 14 1011.2 4/ 6 3/ 6 $$

USA.gov is the U.S. government's official web portal to all federal, state and local government web resources and services.